sat.trackr.live / text

‹ back to catalog

YAOGAN-43 02A

NORAD 60945 · 2024-156A

PAYLOAD ACTIVE UNKNOWN

§ Identity

Operator
Country
PRC
Launch date
2024-09-03
Launch site
XICLF
Launch vehicle
Mass (kg)
RCS (m²)

External: N2YO · Heavens-Above · Gunter

§ Orbital elements

Epoch: 2026-05-24T20:33:54.300672Z

Period
93.06 min
Inclination
34.9956°
Eccentricity
0.0003573
Mean motion
15.47461197 rev/d
Perigee alt
421.7 km
Apogee alt
426.6 km
Semi-major
6,802.3 km
B*
8.0260e-4
RAAN
305.3067°
Arg perigee
45.7373°
Mean anomaly
314.3642°
Rev number
9,634

§ Raw data

YAOGAN-43 02A1 60945U 24156A   26144.85687848  .00042623  00000+0  80260-3 0  99982 60945  34.9956 305.3067 0003573  45.7373 314.3642 15.47461197 96343

JSON: /api/v1/satellites/60945 · /tle

For live sub-satellite position, see the globe view (requires WebGL).

§ Visibility from observer

Set your observer location to see the next 7 days of passes ≥ 10°. The values pass through the URL so the page stays shareable.

No JS? Fill the form by hand. The geolocation button needs JavaScript.